This demonstration page uses our WeatherBlox Daily Observations layout. Learn more.

Left ArrowRight Arrow

34.16533, -84.80231

Hourly Observations for August 20, 2018

Temp ( °F °C ) Dew Point ( °F °C ) Humidity (%) Winds ( mph kmh ) Pressure ( in mb ) Visibility ( mi km ) Precip ( " mm )
1:53 am 01:53 Mostly Cloudy 72 22.2 72 22.2 100 100 Calm 29.99 1016 7 11 0.00 0.00
2:53 am 02:53 Mostly Cloudy with Mist and Fog 72 22.2 72 22.2 100 100 Calm 29.99 1016 6 10 0.00 0.00
3:02 am 03:02 Mostly Cloudy 72 22.2 72 22.2 100 100 Calm 30.03 1017 7 11 0.00 0.00
3:39 am 03:39 Cloudy 72 22.2 72 22.2 100 100 Calm 30.03 1017 10 16 0.00 0.00
3:53 am 03:53 Cloudy 72 22.2 72 22.2 100 100 SSW 3 6 29.99 1016 10 16 0.00 0.00
4:53 am 04:53 Cloudy 71 21.7 71 21.7 100 100 S 5 7 29.99 1016 10 16 0.00 0.00
5:53 am 05:53 Cloudy 72 22.2 72 22.2 100 100 Calm 30.00 1016 9 14 0.00 0.00
6:40 am 06:40 Cloudy 72 22.2 72 22.2 100 100 Calm 30.03 1017 10 16 0.00 0.00
6:53 am 06:53 Cloudy 72 22.2 72 22.2 100 100 Calm 30.01 1016 10 16 0.00 0.00
7:36 am 07:36 Cloudy 72 22.2 72 22.2 100 100 Calm 30.03 1017 9 14 0.00 0.00
7:53 am 07:53 Cloudy 72 22.2 72 22.2 100 100 Calm 30.03 1017 10 16 0.00 0.00
8:53 am 08:53 Cloudy 73 22.8 73 22.8 100 100 S 3 6 30.03 1017 10 16 0.00 0.00
9:53 am 09:53 Cloudy 75 23.9 72 22.2 90 90 Calm 30.04 1017 10 16 0.00 0.00
10:53 am 10:53 Cloudy 76 24.4 73 22.8 91 91 VRB 3 6 30.06 1018 10 16 0.00 0.00
11:53 am 11:53 Cloudy 77 25 72 22.2 85 85 VRB 5 7 30.06 1018 10 16 0.00 0.00
12:49 pm 12:49 Cloudy 77 25 72 22 83 83 SSW 6 9 30.06 1018 10 16 0.00 0.00
12:53 pm 12:53 Cloudy 78 25.6 73 22.8 85 85 SSW 5 7 30.05 1018 10 16 0.00 0.00
1:53 pm 13:53 Mostly Cloudy 80 26.7 73 22.8 79 79 VRB 3 6 30.03 1017 10 16 0.00 0.00
2:53 pm 14:53 Mostly Cloudy 83 28.3 74 23.3 74 74 S 6 9 30.01 1016 10 16 0.00 0.00
3:01 pm 15:01 Cloudy 83 28.3 74 23.3 74 74 VRB 3 6 30.00 1016 10 16 0.00 0.00
3:29 pm 15:29 Mostly Cloudy 85 29.4 73 22.8 68 68 S 5 7 30.00 1016 10 16 0.00 0.00
3:40 pm 15:40 Mostly Cloudy 83 28.3 73 22.8 72 72 VRB 5 7 30.00 1016 10 16 0.00 0.00
3:53 pm 15:53 Partly Cloudy 86 30 75 23.9 70 70 SSE 6 9 29.98 1015 10 16 0.00 0.00
4:53 pm 16:53 Mostly Sunny 85 29.4 75 23.9 72 72 S 6 9 29.97 1015 10 16 0.00 0.03
5:53 pm 17:53 Sunny 84 28.9 74 23.3 72 72 S 9 15 29.98 1015 10 16 0.00 0.00
6:53 pm 18:53 Partly Cloudy 79 26.1 74 23.3 85 85 SSE 8 13 29.99 1016 10 16 0.00 0.00
7:53 pm 19:53 Sunny 76 24.4 74 23.3 94 94 SSE 8 13 29.98 1015 10 16 0.00 0.00
8:53 pm 20:53 Clear 76 24.4 74 23.3 94 94 SSW 3 6 30.00 1016 10 16 0.00 0.00
9:53 pm 21:53 Clear 74 23.3 73 22.8 97 97 VRB 3 6 30.00 1016 10 16 0.00 0.00
10:34 pm 22:34 Mostly Cloudy 74 23.3 73 22.8 97 97 Calm 30.03 1017 10 16 0.00 0.00
10:53 pm 22:53 Cloudy 74 23.3 74 23.3 100 100 SE 3 6 30.02 1017 10 16 0.00 0.00
11:43 pm 23:43 Cloudy 74 23.3 73 22.8 97 97 Calm 30.03 1017 10 16 0.00 0.00
11:53 pm 23:53 Mostly Cloudy 73 22.8 73 22.8 100 100 SE 3 6 30.03 1017 10 16 0.00 0.00

Powered by AerisWeather